Location: Camp at the Woods
(43.2055°N, 93.0905°W)
Time: 07:18:06
(UTC+00:00)

SJ-7 - Pass Details

Date: 05 December 2023
Orbit: 540 x 572 km, 97.8° (Epoch: 29 February)

Event Time Altitude Azimuth Distance (km) Brightness Sun altitude
Rises 12:19:02 0° 11° (NNE) 2,799 7.8 -12.3°
Reaches altitude 10° 12:21:11 10° 11° (N) 1,898 7.0 -11.9°
Maximum altitude 12:25:18 82° 285° (WNW) 589 4.3 -11.2°
Drops below altitude 10° 12:29:24 10° 197° (SSW) 1,884 7.1 -10.5°
Sets 12:31:32 0° 196° (SSW) 2,776 8.0 -10.2°
